Location: Northam
(31.6525°S, 116.6655°E)
Time: 22:18:18
(UTC+08:00)

X-37B - Visible Passes

Search period start: 25 September 2022 00:00
Search period end: 05 October 2022 00:00
Orbit: 330 x 340 km, 45.0° (Epoch: 02 September)

Date Brightness Start Highest point End Pass type
(mag) Time Alt. Az. Time Alt. Az. Time Alt. Az.
29 Sep 2.4 19:19:47 10° SSW 19:21:49 17° SSE 19:22:14 17° SE visible
30 Sep 1.4 19:39:40 10° SW 19:41:57 37° S 19:41:57 37° S visible
01 Oct 2.4 20:00:05 10° WSW 20:01:45 29° W 20:01:45 29° W visible
02 Oct 1.0 18:45:07 10° SW 18:47:52 41° SSE 18:50:24 12° ENE visible
02 Oct 3.8 20:21:34 10° WNW 20:21:39 10° WNW 20:21:39 10° WNW visible
03 Oct 1.0 19:05:31 10° WSW 19:08:19 50° NW 19:10:24 16° NE visible
04 Oct 3.1 19:26:58 10° WNW 19:28:33 14° NW 19:30:08 10° N visible
